EW1556 Weather Reports


Display with metric or nautical units.
time (UTC)temp
F
wind
direction
speed
MPH
gust
MPH
rain 1hr
in
rain 24hr
in
rain mn
in
humidity
%
barometer
mb
20260901044538 62 276 0.0 2.0 0.00 0.00 0.00 37 1007.7
20260901043032 64 286 0.0 2.0 0.00 0.00 0.00 34 1007.7
20260901041527 66 288 2.0 3.0 0.00 0.00 0.00 33 1007.5
20260901040028 66 293 0.0 3.0 0.00 0.00 0.00 32 1007.5
20260901034518 68 283 2.0 3.0 0.00 0.00 0.00 30 1007.3
20260901033030 70 59 0.0 0.0 0.00 0.00 0.00 29 1007.2
20260901031512 71 59 0.0 0.0 0.00 0.00 0.00 28 1007.0
20260901030012 73 59 0.0 0.0 0.00 0.00 0.00 27 1007.0
20260901024607 73 59 0.0 0.0 0.00 0.00 0.00 27 1006.8
20260901023056 74 65 0.0 3.0 0.00 0.00 0.00 26 1006.6
20260901021555 76 77 0.0 3.0 0.00 0.00 0.00 25 1006.6
20260901020048 77 65 1.0 3.0 0.00 0.00 0.00 24 1006.5
20260901014543 79 63 3.0 7.0 0.00 0.00 0.00 23 1006.5
20260901013039 81 55 5.0 9.0 0.00 0.00 0.00 21 1006.4
20260901011540 81 46 5.0 10.0 0.00 0.00 0.00 20 1006.5
20260901010037 82 54 3.0 13.0 0.00 0.00 0.00 20 1006.4
20260901004524 83 77 6.0 11.0 0.00 0.00 0.00 20 1006.6
20260901003020 83 69 5.0 13.0 0.00 0.00 0.00 20 1006.6
20260901001523 83 68 6.0 11.0 0.00 0.00 0.00 20 1006.7
20260901000011 83 43 6.0 12.0 0.00 0.00 0.00 19 1006.8
20260831234520 83 80 5.0 12.0 0.00 0.00 0.00 19 1006.9
20260831233001 83 54 1.0 12.0 0.00 0.00 0.00 19 1007.0
20260831231557 83 60 5.0 9.0 0.00 0.00 0.00 19 1007.1
20260831230100 82 21 1.0 11.0 0.00 0.00 0.00 20 1007.4
20260831224548 82 65 4.0 11.0 0.00 0.00 0.00 21 1007.7
20260831223045 82 74 3.0 10.0 0.00 0.00 0.00 21 1007.9
20260831221543 81 56 3.0 10.0 0.00 0.00 0.00 22 1008.1
20260831220035 81 84 6.0 12.0 0.00 0.00 0.00 22 1008.3
20260831214540 81 94 6.0 11.0 0.00 0.00 0.00 22 1008.5
20260831213037 80 37 3.0 13.0 0.00 0.00 0.00 23 1008.7
20260831211521 79 38 2.0 12.0 0.00 0.00 0.00 23 1009.0
20260831210017 79 28 6.0 15.0 0.00 0.00 0.00 23 1009.3
20260831204512 79 225 1.0 6.0 0.00 0.00 0.00 24 1009.5
20260831203007 78 56 2.0 7.0 0.00 0.00 0.00 25 1009.7
20260831201503 77 122 4.0 9.0 0.00 0.00 0.00 26 1009.9
20260831200058 76 90 3.0 9.0 0.00 0.00 0.00 27 1010.2
20260831194553 76 124 3.0 11.0 0.00 0.00 0.00 28 1010.5
20260831193052 74 60 1.0 9.0 0.00 0.00 0.00 31 1010.6
20260831191544 73 95 3.0 10.0 0.00 0.00 0.00 32 1011.0
20260831190053 73 130 2.0 7.0 0.00 0.00 0.00 32 1011.4
20260831184539 72 331 2.0 9.0 0.00 0.00 0.00 34 1011.7
20260831183030 71 71 4.0 8.0 0.00 0.00 0.00 34 1011.9
20260831181528 69 345 1.0 10.0 0.00 0.00 0.00 36 1012.2
20260831180022 70 7 2.0 7.0 0.00 0.00 0.00 38 1012.4
20260831174516 68 122 1.0 6.0 0.00 0.00 0.00 41 1012.6
20260831173012 67 108 3.0 6.0 0.00 0.00 0.00 41 1012.7
20260831171509 66 6 0.0 6.0 0.00 0.00 0.00 45 1012.8
20260831170005 65 76 2.0 7.0 0.00 0.00 0.00 48 1012.9
20260831164603 64 54 0.0 4.0 0.00 0.00 0.00 49 1012.9
20260831163054 63 322 0.0 3.0 0.00 0.00 0.00 50 1013.1
20260831161550 62 308 0.0 0.0 0.00 0.00 0.00 51 1013.2
20260831160115 60 57 0.0 0.0 0.00 0.00 0.00 54 1013.4
20260831154541 58 336 0.0 0.0 0.00 0.00 0.00 55 1013.3
20260831153116 57 314 0.0 0.0 0.00 0.00 0.00 58 1013.4
20260831151532 56 321 0.0 0.0 0.00 0.00 0.00 59 1013.3
20260831150033 54 309 0.0 0.0 0.00 0.00 0.00 65 1013.3
20260831144523 52 279 0.0 0.0 0.00 0.00 0.00 68 1013.2
20260831143019 50 285 1.0 3.0 0.00 0.00 0.00 72 1013.1
20260831141520 0 0.0 0.0 0.00 0.00 0.00 1013.1
20260831140013 0 0.0 0.0 0.00 0.00 0.00 1013.0
20260831134507 0 0.0 0.0 0.00 0.00 0.00 1013.0
20260831133101 0 0.0 0.0 0.00 0.00 0.00 1013.0
20260831131600 0 0.0 0.0 0.00 0.00 0.00 1013.0
20260831130059 46 288 0.0 0.0 0.00 0.00 0.00 74 1013.0
20260831124557 46 285 0.0 0.0 0.00 0.00 0.00 73 1013.1
20260831123050 48 285 2.0 3.0 0.00 0.00 0.00 73 1013.1
20260831121548 48 288 2.0 2.0 0.00 0.00 0.00 73 1013.0
20260831120121 49 293 0.0 1.0 0.00 0.00 0.00 72 1013.0
20260831114541 49 293 1.0 5.0 0.00 0.00 0.00 70 1012.9
20260831113039 50 291 2.0 5.0 0.00 0.00 0.00 69 1013.0
20260831111547 49 271 0.0 0.0 0.00 0.00 0.00 72 1013.0
20260831110037 49 271 0.0 0.0 0.00 0.00 0.00 71 1013.1
20260831104539 50 285 2.0 3.0 0.00 0.00 0.00 71 1013.1
20260831103037 50 280 1.0 2.0 0.00 0.00 0.00 70 1013.1
20260831101535 50 289 1.0 3.0 0.00 0.00 0.00 70 1013.1
20260831100028 51 285 2.0 4.0 0.00 0.00 0.00 68 1013.2
20260831094526 52 279 2.0 4.0 0.00 0.00 0.00 67 1013.2
20260831093024 52 292 2.0 4.0 0.00 0.00 0.00 67 1013.4
20260831091526 51 286 1.0 2.0 0.00 0.00 0.00 68 1013.6
20260831090020 51 281 1.0 2.0 0.00 0.00 0.00 67 1013.6
20260831084516 52 284 0.0 3.0 0.00 0.00 0.00 65 1013.7
20260831083015 54 296 1.0 5.0 0.00 0.00 0.00 63 1013.8
20260831081530 54 284 2.0 3.0 0.00 0.00 0.00 62 1014.0
20260831080012 53 285 2.0 3.0 0.00 0.00 0.00 63 1014.0
20260831074516 53 272 2.0 4.0 0.00 0.00 0.00 63 1014.0
20260831073010 53 285 0.0 2.0 0.00 0.00 0.00 64 1014.0
20260831071506 54 278 0.0 0.0 0.00 0.00 0.00 62 1014.1
20260831070007 55 279 0.0 2.0 0.00 0.00 0.00 61 1014.2
20260831064503 55 283 2.0 3.0 0.00 0.00 0.00 60 1014.1
20260831063003 55 289 1.0 2.0 0.00 0.00 0.00 59 1014.3
20260831061502 55 288 2.0 3.0 0.00 0.00 0.00 57 1014.3
20260831060001 55 299 0.0 0.0 0.00 0.00 0.00 56 1014.2
20260831054604 56 284 0.0 2.0 0.00 0.00 0.00 53 1014.3
20260831053103 55 302 0.0 0.0 0.00 0.00 0.00 53 1014.4
20260831051620 57 302 0.0 2.0 0.00 0.00 0.00 51 1014.4
20260831050100 59 286 2.0 2.0 0.00 0.00 0.00 49 1014.4